Regional Weather Roundup
Issued by NWS Albany, NY

Home | Current Version | Previous Version | Text Only | Print | Product List | Glossary On
Versions: 1 2 3 4 5 6 7 8 9 10 11 12 13 14 15 16 17 18 19 20 21 22 23 24 25 26
000
ASUS41 KALY 241710
RWRALY

NEW YORK STATE HOURLY WEATHER ROUNDUP
NATIONAL WEATHER SERVICE ALBANY NY
100 PM EDT THU JUN 24 2021

NOTE: "FAIR" INDICATES FEW OR NO CLOUDS BELOW 12,000 FEET WITH NO
SIGNIFICANT WEATHER AND/OR NO OBSTRUCTIONS TO VISIBILITY.

NYZ032-033-038>043-046>054-057>066-NYZ062>081-082-084-241800-
EAST


CITY           SKY/WX    TMP DP  RH WIND       PRES   REMARKS
ALBANY         MOSUNNY   74  48  39 S15       30.36S
GLENS FALLS    SUNNY     75  50  41 S15       30.34F
POUGHKEEPSIE   MOSUNNY   76  49  38 S7        30.36S
NEWBURGH       MOSUNNY   73  50  43 SW12      30.39S
MONTGOMERY     SUNNY     74  49  41 VRB7      30.37S
WHITE PLAINS   MOSUNNY   74  40  29 E8        30.39S
ISLIP          MOSUNNY   73  52  47 SE12G22   30.40S
NEW YORK CITY  MOSUNNY   78  43  28 SE10      30.38S
CENTRAL PARK   MOSUNNY   76  50  40 VRB5      30.42R
$$

NYZ005>009-017-018-044>046-055-056-241800-
CENTRAL


CITY           SKY/WX    TMP DP  RH WIND       PRES   REMARKS
FULTON         SUNNY     79  50  36 S17G23    30.25F
SYRACUSE       MOSUNNY   80  49  33 S14G23    30.27F
ROME           MOSUNNY   78  48  34 S10       30.31F
ELMIRA         SUNNY     77  48  35 SW16G24   30.30F
BINGHAMTON     SUNNY     71  46  40 S13       30.35S
MONTICELLO     SUNNY     71  46  40 SE16G22   30.40S
$$

NYZ026>034-041>043-087-241800-
NORTH


CITY           SKY/WX    TMP DP  RH WIND       PRES   REMARKS
WATERTOWN      SUNNY     80  50  34 S9G16     30.24F
FORT DRUM      NOT AVBL
OGDENSBURG     FAIR      79  52  38 S16G23    30.20F
MASSENA        SUNNY     80  50  34 SW14      30.23F
SARANAC LAKE   SUNNY     75  47  36 SW12G24   30.31F
PLATTSBURGH    SUNNY     76  53  44 SE17      30.28F
$$

NYZ001>004-010>016-019>021-085-241800-
WEST


CITY           SKY/WX    TMP DP  RH WIND       PRES   REMARKS
NIAGARA FALLS  SUNNY     81  52  36 S16G24    30.17F
BUFFALO        MOSUNNY   81  49  32 S17G25    30.18F
DUNKIRK        SUNNY     81  51  35 S23G31    30.17F
JAMESTOWN      SUNNY     73  50  44 S20G33    30.24F
WELLSVILLE     SUNNY     71  48  43 S10G24    30.31F
ROCHESTER      MOSUNNY   79  48  33 SW18G24   30.21F
PENN YAN       SUNNY     77  47  34 S16G24    30.28F
$$

             KEY
       WCI = WIND CHILL INDEX
       VSB = VISIBILITY
       HX  = HEAT INDEX
$$



USA.gov is the U.S. government's official web portal to all federal, state and local government web resources and services.